EW8775 Weather Reports


Display with metric or nautical units.
time (UTC)temp
F
wind
direction
speed
MPH
gust
MPH
rain 1hr
in
rain 24hr
in
rain mn
in
humidity
%
barometer
mb
20260902160036 73 158 7.0 18.0 0.00 0.00 0.00 43 1016.3
20260902153016 72 158 6.0 20.0 0.00 0.00 0.00 41 1016.2
20260902150016 71 158 6.0 16.0 0.00 0.00 0.00 43 1016.0
20260902143015 71 135 5.0 16.0 0.00 0.00 0.00 45 1015.8
20260902140056 70 113 6.0 14.0 0.00 0.00 0.00 45 1015.9
20260902133016 70 135 4.0 11.0 0.00 0.00 0.00 47 1016.2
20260902130015 71 135 3.0 12.0 0.00 0.00 0.00 44 1016.3
20260902123017 70 158 3.0 14.0 0.00 0.00 0.00 44 1016.1
20260902120017 72 135 5.0 15.0 0.00 0.00 0.00 42 1016.4
20260902113018 70 135 2.0 14.0 0.00 0.00 0.00 44 1015.9
20260902053016 72 0.0 4.0 0.00 0.00 0.00 48 1015.2
20260902050017 75 113 3.0 12.0 0.00 0.00 0.00 42 1015.3
20260902043017 75 135 3.0 13.0 0.00 0.00 0.00 42 1015.0
20260902040017 75 135 2.0 11.0 0.00 0.00 0.00 41 1014.8
20260902033057 75 113 2.0 13.0 0.00 0.00 0.00 41 1014.5
20260902030018 74 113 2.0 9.0 0.00 0.00 0.00 42 1014.0
20260902023057 75 113 2.0 11.0 0.00 0.00 0.00 41 1013.9
20260902020017 76 135 2.0 10.0 0.00 0.00 0.00 41 1013.9
20260902013057 77 158 2.0 11.0 0.00 0.00 0.00 40 1014.0
20260902010017 78 180 5.0 13.0 0.00 0.00 0.00 38 1014.5
20260902003017 79 180 5.0 17.0 0.00 0.02 0.00 40 1015.1
20260902000017 80 180 5.0 18.0 0.00 0.02 0.00 39 1015.3
20260901233017 80 180 4.0 16.0 0.00 0.02 0.00 39 1015.4
20260901230017 80 180 4.0 14.0 0.00 0.02 0.00 37 1015.4
20260901223017 79 180 3.0 12.0 0.00 0.02 0.00 40 1015.8
20260901220017 79 0.0 8.0 0.00 0.02 0.00 42 1016.3
20260901213056 76 0.0 7.0 0.00 0.02 0.00 48 1016.6
20260901210056 77 180 3.0 15.0 0.00 0.02 0.00 44 1017.0
20260901203017 77 180 2.0 11.0 0.00 0.02 0.00 45 1017.1
20260901200016 76 180 5.0 14.0 0.00 0.02 0.00 45 1017.7
20260901193016 75 180 4.0 13.0 0.00 0.02 0.00 49 1018.0
20260901190017 75 180 4.0 14.0 0.00 0.02 0.00 49 1018.5
20260901183016 71 180 1.0 11.0 0.00 0.02 0.00 56 1018.5
20260901180016 69 0.0 5.0 0.00 0.02 0.00 63 1018.6
20260901173017 69 0.0 0.0 0.00 0.02 0.00 65 1018.8
20260901170016 65 0.0 0.0 0.00 0.02 0.00 71 1018.4
20260901163016 63 0.0 0.0 0.00 0.02 0.00 72 1017.7